Frederick, MD

5:21 AM EST on December 09, 2019 (GMT -0500)
Frederick Municipal

Weather History for KFDK - November, 2019

Change the Weather History Date:

Thursday, November 14, 2019

  Actual Average (WUND) Record (WUND)
Temperature  
Mean Temperature 34 °F -  
Max Temperature 44 °F - - (-1)
Min Temperature 23 °F - - (-1)
Degree Days  
Heating Degree Days 32    
Moisture  
Dew Point 22 °F    
Average Humidity 71    
Maximum Humidity 93    
Minimum Humidity 34    
Precipitation  
Precipitation 0.00 in - - ()
Sea Level Pressure  
Sea Level Pressure 30.36 in    
Wind  
Wind Speed 1 mph (SSW)    
Max Wind Speed 12 mph    
Max Gust Speed -    
Visibility 10 miles    
Events      
Averages and records for this station are not official NWS values.
T = Trace of Precipitation, MM = Missing Value Source: NWS Daily Summary

Daily Weather History Graph

Daily Weather History Graph

Search for Another Location

Airport or City:

Astronomy

Nov. 14, 2019 Rise Set
Actual Time 6:51 AM EST 4:55 PM EST
Civil Twilight 6:23 AM EST 5:24 PM EST
Nautical Twilight 5:50 AM EST 5:56 PM EST
Astronomical Twilight 5:19 AM EST 6:28 PM EST
Moon 6:40 PM EST (11/14) 8:45 AM EST (11/14)
Length of Visible Light 11h 00m
Length of Day
10h 03m
Waning Gibbous, 95% of the Moon is Illuminated
Nov 14
Waning Gibbous
Nov 19
Last Quarter
Nov 26
New
Dec 4
First Quarter
Dec 12
Full

Hourly Weather History & Observations

Time (EST) Temp. Windchill Dew Point Humidity Pressure Visibility Wind Dir Wind Speed Gust Speed Precip Events Conditions
12:00 AM 26.6 °F - 21.2 °F 80% 30.40 in 10.0 mi Calm Calm - N/A   Clear
12:20 AM 26.6 °F - 21.2 °F 80% 30.40 in 10.0 mi Calm Calm - N/A   Clear
12:40 AM 26.6 °F - 19.4 °F 74% 30.40 in 10.0 mi Calm Calm - N/A   Clear
1:00 AM 26.6 °F - 21.2 °F 80% 30.39 in 10.0 mi Calm Calm - N/A   Clear
1:20 AM 26.6 °F - 21.2 °F 80% 30.39 in 10.0 mi Calm Calm - N/A   Clear
2:20 AM 24.8 °F - 21.2 °F 86% 30.39 in 10.0 mi Calm Calm - N/A   Clear
2:40 AM 24.8 °F - 23.0 °F 93% 30.39 in 10.0 mi Calm Calm - N/A   Clear
3:00 AM 24.8 °F - 23.0 °F 93% 30.38 in 10.0 mi Calm Calm - N/A   Clear
3:40 AM 26.6 °F - 19.4 °F 74% 30.38 in 10.0 mi Calm Calm - N/A   Clear
4:00 AM 26.6 °F - 19.4 °F 74% 30.38 in 10.0 mi Calm Calm - N/A   Clear
4:20 AM 23.0 °F - 21.2 °F 93% 30.38 in 10.0 mi Calm Calm - N/A   Clear
4:40 AM 23.0 °F - 21.2 °F 93% 30.39 in 10.0 mi Calm Calm - N/A   Clear
5:00 AM 24.8 °F - 23.0 °F 93% 30.38 in 10.0 mi Calm Calm - N/A   Clear
5:20 AM 23.0 °F - 21.2 °F 93% 30.38 in 10.0 mi Calm Calm - N/A   Clear
5:40 AM 24.8 °F - 19.4 °F 80% 30.37 in 10.0 mi Calm Calm - N/A   Clear
6:00 AM 26.6 °F - 19.4 °F 74% 30.38 in 10.0 mi Calm Calm - N/A   Clear
6:20 AM 26.6 °F - 19.4 °F 74% 30.40 in 10.0 mi Calm Calm - N/A   Clear
6:40 AM 26.6 °F - 19.4 °F 74% 30.40 in 10.0 mi Calm Calm - N/A   Clear
7:00 AM 26.6 °F - 19.4 °F 74% 30.40 in 10.0 mi Calm Calm - N/A   Clear
7:47 AM 26.6 °F - 19.4 °F 74% 30.41 in 10.0 mi Calm Calm - N/A   Clear
8:47 AM 32.0 °F 27.5 °F 21.2 °F 64% 30.41 in 10.0 mi SW 4.6 mph - N/A   Clear
9:47 AM 35.6 °F 27.5 °F 21.2 °F 56% 30.39 in 10.0 mi SW 11.5 mph - N/A   Mostly Cloudy
10:47 AM 35.6 °F 29.2 °F 19.4 °F 52% 30.39 in 10.0 mi WSW 8.1 mph - N/A   Mostly Cloudy
11:47 AM 41.0 °F 35.8 °F 19.4 °F 42% 30.35 in 10.0 mi SSW 8.1 mph - N/A   Mostly Cloudy
12:47 PM 42.8 °F 38.6 °F 17.6 °F 36% 30.32 in 10.0 mi South 6.9 mph - N/A   Mostly Cloudy
1:47 PM 44.6 °F 39.7 °F 17.6 °F 34% 30.31 in 10.0 mi WSW 9.2 mph - N/A   Partly Cloudy
2:47 PM 42.8 °F 38.6 °F 17.6 °F 36% 30.31 in 10.0 mi SW 6.9 mph - N/A   Mostly Cloudy
3:47 PM 42.8 °F 38.6 °F 17.6 °F 36% 30.32 in 10.0 mi SSW 6.9 mph - N/A   Mostly Cloudy
4:47 PM 41.0 °F - 19.4 °F 42% 30.31 in 10.0 mi Calm Calm - N/A   Scattered Clouds
5:47 PM 37.4 °F - 19.4 °F 48% 30.32 in 10.0 mi Calm Calm - N/A   Scattered Clouds
6:47 PM 35.6 °F - 24.8 °F 65% 30.32 in 10.0 mi Calm Calm - N/A   Overcast
8:47 PM 35.6 °F - 21.2 °F 56% 30.32 in 10.0 mi Calm Calm - N/A   Mostly Cloudy
9:15 PM 33.8 °F - 26.6 °F 75% 30.32 in 10.0 mi Calm Calm - N/A   Mostly Cloudy
9:35 PM 33.8 °F - 26.6 °F 75% 30.32 in 10.0 mi Calm Calm - N/A   Mostly Cloudy
9:55 PM 32.0 °F - 26.6 °F 80% 30.32 in 10.0 mi Calm Calm - N/A   Mostly Cloudy
10:15 PM 32.0 °F - 26.6 °F 80% 30.32 in 10.0 mi Calm Calm - N/A   Scattered Clouds
10:35 PM 30.2 °F - 26.6 °F 86% 30.32 in 10.0 mi Calm Calm - N/A   Clear
10:55 PM 32.0 °F - 26.6 °F 80% 30.32 in 10.0 mi Calm Calm - N/A   Clear
11:15 PM 32.0 °F 28.7 °F 26.6 °F 80% 30.31 in 10.0 mi SE 3.5 mph - N/A   Scattered Clouds
11:35 PM 32.0 °F 27.5 °F 24.8 °F 75% 30.31 in 10.0 mi SE 4.6 mph - N/A   Scattered Clouds
11:55 PM 30.2 °F - 24.8 °F 80% 30.31 in 10.0 mi Calm Calm - N/A   Clear